Hanalei, HI (96714)

11:16 PM HST on February 11, 2016 (GMT -1000)
North Shore of Kauai | | Change Station
CLOSE
Current Station
Personal Weather Station
Location: Princeville, HI
Elevation: 200 ft
Nearby Weather Stations
Active Advisory: High Surf Warning

Elev 200 ft 22.23 °N, 159.48 °W | Updated 1 second ago

Scattered Clouds
Scattered Clouds
70.2 °F
Feels Like 73 °F
N
5.4
Wind Variable Wind from SE
Gusts 5.4 mph

Today
High -- | Low -- °F
--% Chance of Precip.
Yesterday
High -- | Low -- °F
Precip. -- in
Pressure 30.07 in
Visibility 10.0 miles
Clouds Few 2400 ft
Scattered Clouds 4400 ft
Heat Index 73 °F
Dew Point 62 °F
Humidity 75%
Rainfall 0.09 in
Snow Depth Not available.
7:11 AM 6:32 PM
Waxing Crescent, 19% visible
METAR PHLI 120853Z AUTO 06011KT 10SM FEW024 SCT044 23/18 A3008 RMK AO2 SLP182 T02330183 51003 TSNO
Pressure 30.07 in
Visibility 10.0 miles
Clouds Few 2400 ft
Scattered Clouds 4400 ft
Heat Index 73 °F
Dew Point 62 °F
Humidity 75%
Rainfall 0.09 in
Snow Depth Not available.
7:11 AM 6:32 PM
Waxing Crescent, 19% visible
METAR PHLI 120853Z AUTO 06011KT 10SM FEW024 SCT044 23/18 A3008 RMK AO2 SLP182 T02330183 51003 TSNO

10-Day Weather Forecast

Almanac

Astronomy

Feb. 11, 2016 Rise Set
Actual Time
Civil Twilight
Nautical Twilight
Astronomical Twilight
Moon
Length of Visible Light
Length of Day
Tomorrow will be .
, % of the Moon is Illuminated

Today's Extremes

State Highs State Lows

Community

WunderPhotos

Upload Photos

1,892,286 photos uploaded!

WunderBlog® & News

Nearby

Air Quality

  Air Quality AQ Index Pollutant
Not available.

Snow Depth

Station Depth Elevation

Earthquake Activity

City Distance Mag. Time & Date
Minimum magnitude displayed is 2.5.

Coastal Water Temperatures

Place Temperature

Stations

Nearby Weather Stations

Station Location Temp. Windchill Dew Point Humidity Wind Precip. Elev Updated Type
                   

Watches & Warnings

High Surf Warning
Issued: 3:18 PM HST Feb. 11, 2016 – National Weather Service

... High surf warning now in effect until 6 am HST Friday...

* surf... along north and west facing shores of Niihau and Kauai
and north facing shores of Oahu Molokai and Maui... 20 to 30
feet. Along west facing shores of Oahu and Molokai... 15 to 20
feet. Surf will diminish to advisory levels on Friday.

* Timing... through tonight.

* Impacts... high... expect ocean water occasionally sweeping
across portions of beaches... very strong breaking waves and
strong longshore and rip currents. Breaking waves may
occasionally impact harbors making navigating The Harbor channel
dangerous.

Precautionary/preparedness actions...

Beachgoers... swimmers... and surfers should heed all advice given
by ocean safety officials and exercise caution. Large breaking
surf... significant shorebreak... and dangerous currents make
entering the water very hazardous.